| time (UTC) | temp F | wind direction | speed knots | gust knots | rain 1hr in | rain 24hr in | rain mn in | humidity % | barometer mb |
| 20260507154814 | 79 | 100 | 2.6 | 0.0 | 0.00 | 0.00 | 0.00 | 34 | 1014.0 |
| 20260507153314 | 79 | 100 | 2.6 | 0.0 | 0.00 | 0.00 | 0.00 | 34 | 1014.0 |
| 20260507151814 | 77 | 120 | 6.1 | 0.0 | 0.00 | 0.00 | 0.00 | 39 | 1014.0 |
| 20260507150314 | 77 | 120 | 6.1 | 0.0 | 0.00 | 0.00 | 0.00 | 39 | 1014.0 |
| 20260507144814 | 81 | 110 | 7.0 | 0.0 | 0.00 | 0.00 | 0.00 | 34 | 1014.0 |
| 20260507143316 | 81 | 110 | 7.0 | 0.0 | 0.00 | 0.00 | 0.00 | 34 | 1014.0 |
| 20260507141814 | 79 | 110 | 6.1 | 0.0 | 0.00 | 0.00 | 0.00 | 34 | 1014.0 |
| 20260507140314 | 79 | 110 | 6.1 | 0.0 | 0.00 | 0.00 | 0.00 | 34 | 1014.0 |
| 20260507134814 | 81 | 90 | 7.0 | 0.0 | 0.00 | 0.00 | 0.00 | 34 | 1014.0 |
| 20260507133314 | 81 | 90 | 7.0 | 0.0 | 0.00 | 0.00 | 0.00 | 34 | 1014.0 |
| 20260507131811 | 79 | 100 | 6.1 | 0.0 | 0.00 | 0.00 | 0.00 | 34 | 1015.0 |
| 20260507130314 | 79 | 100 | 6.1 | 0.0 | 0.00 | 0.00 | 0.00 | 34 | 1015.0 |
| 20260507124814 | 79 | 4.3 | 0.0 | 0.00 | 0.00 | 0.00 | 34 | 1015.0 | |
| 20260507123352 | 79 | 4.3 | 0.0 | 0.00 | 0.00 | 0.00 | 34 | 1015.0 | |
| 20260507121814 | 77 | 110 | 4.3 | 0.0 | 0.00 | 0.00 | 0.00 | 39 | 1015.0 |
| 20260507120314 | 77 | 110 | 4.3 | 0.0 | 0.00 | 0.00 | 0.00 | 39 | 1015.0 |
| 20260507114814 | 77 | 120 | 5.2 | 0.0 | 0.00 | 0.00 | 0.00 | 34 | 1015.0 |
| 20260507113330 | 77 | 100 | 6.1 | 0.0 | 0.00 | 0.00 | 0.00 | 36 | 1016.0 |
| 20260507111814 | 77 | 100 | 6.1 | 0.0 | 0.00 | 0.00 | 0.00 | 36 | 1016.0 |
| 20260507110314 | 77 | 100 | 6.1 | 0.0 | 0.00 | 0.00 | 0.00 | 36 | 1016.0 |
| 20260507104813 | 75 | 160 | 6.1 | 0.0 | 0.00 | 0.00 | 0.00 | 34 | 1016.0 |
| 20260507103314 | 75 | 160 | 6.1 | 0.0 | 0.00 | 0.00 | 0.00 | 34 | 1016.0 |
| 20260507101814 | 73 | 4.3 | 0.0 | 0.00 | 0.00 | 0.00 | 36 | 1016.0 | |
| 20260507100314 | 73 | 4.3 | 0.0 | 0.00 | 0.00 | 0.00 | 36 | 1016.0 | |
| 20260507094814 | 73 | 60 | 5.2 | 0.0 | 0.00 | 0.00 | 0.00 | 36 | 1016.0 |
| 20260507093314 | 73 | 60 | 5.2 | 0.0 | 0.00 | 0.00 | 0.00 | 36 | 1016.0 |
| 20260507091815 | 73 | 80 | 5.2 | 0.0 | 0.00 | 0.00 | 0.00 | 38 | 1016.0 |
| 20260507090314 | 73 | 80 | 5.2 | 0.0 | 0.00 | 0.00 | 0.00 | 38 | 1016.0 |
| 20260507084814 | 70 | 90 | 7.0 | 0.0 | 0.00 | 0.00 | 0.00 | 43 | 1016.0 |
| 20260507083314 | 70 | 90 | 7.0 | 0.0 | 0.00 | 0.00 | 0.00 | 43 | 1016.0 |
| 20260507081814 | 68 | 80 | 7.8 | 0.0 | 0.00 | 0.00 | 0.00 | 46 | 1016.0 |
| 20260507080315 | 68 | 80 | 7.8 | 0.0 | 0.00 | 0.00 | 0.00 | 46 | 1016.0 |
| 20260507074814 | 64 | 60 | 5.2 | 0.0 | 0.00 | 0.00 | 0.00 | 56 | 1016.0 |
| 20260507073314 | 64 | 60 | 5.2 | 0.0 | 0.00 | 0.00 | 0.00 | 56 | 1016.0 |
| 20260507071814 | 63 | 60 | 7.0 | 0.0 | 0.00 | 0.00 | 0.00 | 56 | 1016.0 |
| 20260507070314 | 63 | 60 | 7.0 | 0.0 | 0.00 | 0.00 | 0.00 | 56 | 1016.0 |
| 20260507064814 | 61 | 70 | 6.1 | 0.0 | 0.00 | 0.00 | 0.00 | 59 | 1016.0 |
| 20260507063314 | 61 | 70 | 6.1 | 0.0 | 0.00 | 0.00 | 0.00 | 59 | 1016.0 |
| 20260507061826 | 57 | 60 | 6.1 | 0.0 | 0.00 | 0.00 | 0.00 | 72 | 1016.0 |
| 20260507060314 | 57 | 60 | 6.1 | 0.0 | 0.00 | 0.00 | 0.00 | 72 | 1016.0 |
| 20260507054814 | 55 | 70 | 7.0 | 0.0 | 0.00 | 0.00 | 0.00 | 72 | 1016.0 |
| 20260507053321 | 55 | 70 | 7.0 | 0.0 | 0.00 | 0.00 | 0.00 | 72 | 1016.0 |
| 20260507051814 | 54 | 70 | 7.0 | 0.0 | 0.00 | 0.00 | 0.00 | 77 | 1016.0 |
| 20260507050314 | 54 | 70 | 7.0 | 0.0 | 0.00 | 0.00 | 0.00 | 77 | 1016.0 |
| 20260507044814 | 52 | 60 | 5.2 | 0.0 | 0.00 | 0.00 | 0.00 | 82 | 1016.0 |
| 20260507043314 | 52 | 60 | 5.2 | 0.0 | 0.00 | 0.00 | 0.00 | 82 | 1016.0 |
| 20260507041814 | 50 | 40 | 2.6 | 0.0 | 0.00 | 0.00 | 0.00 | 88 | 1016.0 |
| 20260507040314 | 50 | 40 | 2.6 | 0.0 | 0.00 | 0.00 | 0.00 | 88 | 1016.0 |
| 20260507034814 | 48 | 40 | 4.3 | 0.0 | 0.00 | 0.00 | 0.00 | 87 | 1016.0 |
| 20260507033313 | 48 | 40 | 4.3 | 0.0 | 0.00 | 0.00 | 0.00 | 87 | 1016.0 |
| 20260507031814 | 48 | 50 | 4.3 | 0.0 | 0.00 | 0.00 | 0.00 | 87 | 1016.0 |
| 20260507030314 | 48 | 50 | 4.3 | 0.0 | 0.00 | 0.00 | 0.00 | 87 | 1016.0 |
| 20260507024814 | 48 | 60 | 4.3 | 0.0 | 0.00 | 0.00 | 0.00 | 87 | 1015.0 |
| 20260507023314 | 48 | 60 | 4.3 | 0.0 | 0.00 | 0.00 | 0.00 | 87 | 1015.0 |
| 20260507021814 | 50 | 50 | 4.3 | 0.0 | 0.00 | 0.00 | 0.00 | 82 | 1015.0 |
| 20260507020314 | 50 | 50 | 4.3 | 0.0 | 0.00 | 0.00 | 0.00 | 82 | 1015.0 |
| 20260507014814 | 48 | 60 | 4.3 | 0.0 | 0.00 | 0.00 | 0.00 | 82 | 1015.0 |
| 20260507013313 | 48 | 60 | 4.3 | 0.0 | 0.00 | 0.00 | 0.00 | 82 | 1015.0 |
| 20260507011814 | 50 | 60 | 4.3 | 0.0 | 0.00 | 0.00 | 0.00 | 82 | 1015.0 |
| 20260507010314 | 50 | 60 | 4.3 | 0.0 | 0.00 | 0.00 | 0.00 | 82 | 1015.0 |
| 20260507004814 | 50 | 50 | 4.3 | 0.0 | 0.00 | 0.00 | 0.00 | 82 | 1015.0 |
| 20260507003314 | 50 | 50 | 4.3 | 0.0 | 0.00 | 0.00 | 0.00 | 82 | 1015.0 |
| 20260507001814 | 50 | 40 | 5.2 | 0.0 | 0.00 | 0.00 | 0.00 | 82 | 1015.0 |
| 20260507000314 | 50 | 40 | 5.2 | 0.0 | 0.00 | 0.00 | 0.00 | 82 | 1015.0 |
| 20260506234814 | 52 | 20 | 5.2 | 0.0 | 0.00 | 0.00 | 0.00 | 77 | 1015.0 |
| 20260506233314 | 52 | 20 | 5.2 | 0.0 | 0.00 | 0.00 | 0.00 | 77 | 1015.0 |
| 20260506231815 | 55 | 30 | 6.1 | 0.0 | 0.00 | 0.00 | 0.00 | 63 | 1015.0 |
| 20260506230314 | 55 | 30 | 6.1 | 0.0 | 0.00 | 0.00 | 0.00 | 63 | 1015.0 |
| 20260506224813 | 55 | 60 | 4.3 | 0.0 | 0.00 | 0.00 | 0.00 | 63 | 1015.0 |
| 20260506223314 | 55 | 60 | 4.3 | 0.0 | 0.00 | 0.00 | 0.00 | 63 | 1015.0 |
| 20260506221814 | 57 | 90 | 7.0 | 0.0 | 0.00 | 0.00 | 0.00 | 59 | 1015.0 |
| 20260506220313 | 57 | 90 | 7.0 | 0.0 | 0.00 | 0.00 | 0.00 | 59 | 1015.0 |
| 20260506214830 | 61 | 100 | 6.1 | 0.0 | 0.00 | 0.00 | 0.00 | 48 | 1015.0 |
| 20260506213314 | 61 | 100 | 6.1 | 0.0 | 0.00 | 0.00 | 0.00 | 48 | 1015.0 |
| 20260506211814 | 63 | 110 | 7.0 | 0.0 | 0.00 | 0.00 | 0.00 | 49 | 1015.0 |
| 20260506210313 | 63 | 110 | 7.0 | 0.0 | 0.00 | 0.00 | 0.00 | 49 | 1015.0 |
| 20260506204815 | 63 | 110 | 7.0 | 0.0 | 0.00 | 0.00 | 0.00 | 56 | 1015.0 |
| 20260506203314 | 63 | 110 | 7.0 | 0.0 | 0.00 | 0.00 | 0.00 | 56 | 1015.0 |
| 20260506201814 | 63 | 110 | 7.0 | 0.0 | 0.00 | 0.00 | 0.00 | 56 | 1015.0 |
| 20260506200314 | 63 | 110 | 7.0 | 0.0 | 0.00 | 0.00 | 0.00 | 56 | 1015.0 |
| 20260506194833 | 64 | 110 | 8.7 | 0.0 | 0.00 | 0.00 | 0.00 | 56 | 1015.0 |
| 20260506193337 | 64 | 110 | 8.7 | 0.0 | 0.00 | 0.00 | 0.00 | 56 | 1015.0 |
| 20260506191815 | 63 | 100 | 7.8 | 0.0 | 0.00 | 0.00 | 0.00 | 59 | 1014.0 |
| 20260506190314 | 63 | 100 | 7.8 | 0.0 | 0.00 | 0.00 | 0.00 | 59 | 1014.0 |
| 20260506184819 | 64 | 90 | 8.7 | 0.0 | 0.00 | 0.00 | 0.00 | 56 | 1014.0 |
| 20260506183314 | 64 | 90 | 8.7 | 0.0 | 0.00 | 0.00 | 0.00 | 56 | 1014.0 |
| 20260506181814 | 66 | 90 | 8.7 | 0.0 | 0.00 | 0.00 | 0.00 | 52 | 1014.0 |
| 20260506180314 | 66 | 90 | 8.7 | 0.0 | 0.00 | 0.00 | 0.00 | 52 | 1014.0 |
| 20260506174814 | 68 | 100 | 8.7 | 0.0 | 0.00 | 0.00 | 0.00 | 49 | 1013.0 |
| 20260506173314 | 68 | 100 | 8.7 | 0.0 | 0.00 | 0.00 | 0.00 | 49 | 1013.0 |
| 20260506171814 | 72 | 90 | 9.6 | 0.0 | 0.00 | 0.00 | 0.00 | 44 | 1013.0 |
| 20260506170314 | 72 | 90 | 9.6 | 0.0 | 0.00 | 0.00 | 0.00 | 44 | 1013.0 |
| 20260506164814 | 73 | 90 | 9.6 | 0.0 | 0.00 | 0.00 | 0.00 | 41 | 1013.0 |
| 20260506163314 | 73 | 90 | 9.6 | 0.0 | 0.00 | 0.00 | 0.00 | 41 | 1013.0 |
| 20260506161814 | 75 | 90 | 9.6 | 0.0 | 0.00 | 0.00 | 0.00 | 39 | 1013.0 |
| 20260506160314 | 75 | 90 | 9.6 | 0.0 | 0.00 | 0.00 | 0.00 | 39 | 1013.0 |